Flag Weather past 2 weeks in Sumqayit, Azerbaijan

Now
45 °F

Overcast.


Feels Like: 38 °F
Forecast: 39 / 45 °F
Wind: 14 mph from North

Location: Baku / Bine Airport

Current Time: Nov 28, 2014 at 4:53:53 PM

Latest Report: Nov 28, 2014 at 4:30 PM


Visibility: N/A

Pressure: 30.30 "Hg

Humidity: 76%

Dew point: 37 °F

Location of SumqayitLocation

Historic Weather in Sumqayit — Graph

°F

Sumqayit temperature yesterday

Maximum temperature yesterday: 50 °F (at 12:00 PM)
Minimum temperature yesterday: 41 °F (at 1:30 AM)
Average temperature yesterday: 46 °F

Past Weeks' High & Low Weather Summary

 TemperatureHumidityPressure
High61 °F (Nov 15, 12:00 PM)100% (Nov 15, 5:00 AM)30.45 "Hg (Nov 15, 5:00 AM)
Low41 °F (Nov 26, 3:00 AM)59% (Nov 14, 1:00 PM)29.83 "Hg (Nov 22, 7:00 PM)
Average49 °F83%30.22 "Hg
* Reported Nov 13 3:00 PM — Nov 28 3:30 PM, Sumqayit, Weather by CustomWeather, © 2014

Note: Actual official high and low records may vary slightly from our data, if they occured in-between our weather recording intervals... More about our weather records

Advertising

Sumqayit weather history for previous 24 hours

 ConditionsComfort  
Time TempWeatherWind HumidityBarometerVisibility
3:30 PM
Nov 28
45 °FOvercast.15 mph76%30.27 "HgN/A
3:00 PM45 °FMostly cloudy.16 mph81%30.27 "HgN/A
2:30 PM46 °FMore clouds than sun.14 mph76%30.27 "HgN/A
2:00 PM46 °FMostly cloudy.14 mph76%30.27 "HgN/A
1:30 PM46 °FOvercast.12 mph76%30.27 "HgN/A
1:00 PM46 °FOvercast.12 mph82%30.27 "HgN/A
12:30 PM46 °FOvercast.10 mph82%30.30 "HgN/A
12:00 PM46 °FOvercast.10 mph82%30.30 "HgN/A
11:30 AM46 °FOvercast.10 mph82%30.30 "HgN/A
11:00 AM46 °FOvercast.10 mph87%30.30 "HgN/A
10:30 AM48 °FOvercast.9 mph82%30.30 "HgN/A
10:00 AM46 °FOvercast.9 mph87%30.30 "HgN/A
9:30 AM46 °FOvercast.9 mph87%30.27 "HgN/A
9:00 AM46 °FOvercast.7 mph87%30.27 "HgN/A
8:30 AM46 °FOvercast.7 mph87%30.27 "HgN/A
8:00 AM46 °FLight rain. Overcast.8 mph87%30.27 "HgN/A
7:30 AM46 °FLight rain. Overcast.8 mph87%30.24 "HgN/A
7:00 AM45 °FMostly cloudy.6 mph93%30.24 "HgN/A
6:30 AM45 °FSprinkles. Mostly cloudy.5 mph93%30.24 "HgN/A
6:00 AM45 °FMostly cloudy.6 mph93%30.24 "HgN/A
5:30 AM45 °FSprinkles. Mostly cloudy.7 mph93%30.24 "HgN/A
5:00 AM45 °FSprinkles. Mostly cloudy.7 mph93%30.24 "HgN/A
4:30 AM43 °FSprinkles. Mostly cloudy.7 mph93%30.24 "HgN/A
4:00 AM45 °FSprinkles. Mostly cloudy.6 mph93%30.24 "HgN/A
3:30 AM45 °FSprinkles. Mostly cloudy.3 mph87%30.24 "HgN/A
3:00 AM45 °FMostly cloudy.7 mph87%30.24 "HgN/A
2:30 AM45 °FSprinkles. Mostly cloudy.7 mph87%30.24 "HgN/A
2:00 AM45 °FSprinkles. Mostly cloudy.7 mph87%30.24 "HgN/A
1:30 AM45 °FOvercast.6 mph87%30.24 "HgN/A
1:00 AM45 °FOvercast.6 mph87%30.24 "HgN/A
12:30 AM46 °FOvercast.6 mph82%30.24 "HgN/A
12:00 AM46 °FOvercast.7 mph82%30.24 "HgN/A
11:30 PM
Nov 27
46 °FOvercast.7 mph82%30.24 "HgN/A
11:00 PM46 °FOvercast.8 mph82%30.21 "HgN/A
10:30 PM46 °FOvercast.6 mph82%30.21 "HgN/A
10:00 PM46 °FLight rain. Overcast.6 mph87%30.21 "HgN/A
9:30 PM46 °FLight rain. Overcast.7 mph87%30.21 "HgN/A
9:00 PM46 °FLight rain. Overcast.7 mph87%30.21 "HgN/A
8:30 PM46 °FLight rain. Overcast.8 mph87%30.21 "HgN/A
8:00 PM46 °FLight rain. Overcast.8 mph87%30.21 "HgN/A
7:30 PM46 °FLight rain. Overcast.7 mph87%30.21 "HgN/A
7:00 PM46 °FOvercast.9 mph87%30.21 "HgN/A
6:30 PM48 °FOvercast.10 mph87%30.21 "HgN/A
6:00 PM48 °FOvercast.12 mph87%30.18 "HgN/A
5:30 PM48 °FOvercast.13 mph87%30.18 "HgN/A
5:00 PM48 °FLow clouds.13 mph94%30.18 "HgN/A
4:30 PM48 °FMostly cloudy.15 mph94%30.15 "HgN/A
4:00 PM48 °FLight rain. Mostly cloudy.14 mph94%30.15 "Hg3 mi
Weather by CustomWeather, © 2014

See weather overviewHow to use our weather pages